Time,TemperatureF,DewpointF,PressureIn,WindDirection,WindDirectionDegrees,WindSpeedMPH,WindSpeedGustMPH,Humidity,HourlyPrecipIn,Conditions,Clouds,dailyrainin,SoftwareType,DateUTC
2013-03-09 00:02:00,45.0,37.0,30.16,East,82,0.0,0.0,72,0.00,,,0.00,,2013-03-09 06:02:00,
2013-03-09 00:11:00,46.0,35.0,30.16,East,81,0.0,0.0,66,0.00,,,0.00,,2013-03-09 06:11:00,
2013-03-09 00:22:00,46.0,35.0,30.16,East,81,0.0,0.0,66,0.00,,,0.00,,2013-03-09 06:22:00,
2013-03-09 00:32:00,47.0,35.0,30.15,East,80,0.0,1.0,63,0.00,,,0.00,,2013-03-09 06:32:00,
2013-03-09 00:42:00,47.0,35.0,30.15,East,80,0.0,1.0,63,0.00,,,0.00,,2013-03-09 06:42:00,
2013-03-09 00:52:00,47.0,35.0,30.15,East,81,0.0,0.0,64,0.00,,,0.00,,2013-03-09 06:52:00,
2013-03-09 01:01:00,46.0,35.0,30.15,East,80,0.0,0.0,66,0.00,,,0.00,,2013-03-09 07:01:00,
2013-03-09 01:11:00,46.0,35.0,30.15,East,80,0.0,0.0,66,0.00,,,0.00,,2013-03-09 07:11:00,
2013-03-09 01:21:00,46.0,36.0,30.16,East,81,0.0,0.0,69,0.00,,,0.00,,2013-03-09 07:21:00,
2013-03-09 01:32:00,45.0,35.0,30.16,East,80,0.0,0.0,67,0.00,,,0.00,,2013-03-09 07:32:00,
2013-03-09 01:42:00,45.0,35.0,30.16,East,80,0.0,0.0,67,0.00,,,0.00,,2013-03-09 07:42:00,
2013-03-09 01:52:00,45.0,35.0,30.16,East,81,0.0,0.0,68,0.00,,,0.00,,2013-03-09 07:52:00,
2013-03-09 02:01:00,45.0,35.0,30.16,East,81,0.0,0.0,69,0.00,,,0.00,,2013-03-09 08:01:00,
2013-03-09 02:11:00,45.0,35.0,30.16,East,81,0.0,0.0,69,0.00,,,0.00,,2013-03-09 08:11:00,
2013-03-09 02:22:00,45.0,36.0,30.15,ENE,78,0.0,1.0,70,0.00,,,0.00,,2013-03-09 08:22:00,
2013-03-09 02:32:00,45.0,37.0,30.15,ENE,78,0.0,0.0,72,0.00,,,0.00,,2013-03-09 08:32:00,
2013-03-09 02:42:00,45.0,37.0,30.15,ENE,78,0.0,0.0,72,0.00,,,0.00,,2013-03-09 08:42:00,
2013-03-09 02:52:00,44.0,36.0,30.15,ENE,77,0.0,0.0,74,0.00,,,0.00,,2013-03-09 08:52:00,
2013-03-09 03:02:00,44.0,35.0,30.14,ENE,78,0.0,0.0,71,0.00,,,0.00,,2013-03-09 09:02:00,
2013-03-09 03:12:00,44.0,35.0,30.14,ENE,78,0.0,0.0,71,0.00,,,0.00,,2013-03-09 09:12:00,
2013-03-09 03:21:00,44.0,36.0,30.15,ENE,77,0.0,0.0,74,0.00,,,0.00,,2013-03-09 09:21:00,
2013-03-09 03:32:00,44.0,36.0,30.15,ENE,77,0.0,0.0,74,0.00,,,0.00,,2013-03-09 09:32:00,
2013-03-09 03:42:00,44.0,36.0,30.15,ENE,77,0.0,0.0,74,0.00,,,0.00,,2013-03-09 09:42:00,
2013-03-09 03:52:00,44.0,36.0,30.16,ENE,77,0.0,0.0,74,0.00,,,0.00,,2013-03-09 09:52:00,
2013-03-09 04:01:00,44.0,37.0,30.16,ENE,78,0.0,0.0,76,0.00,,,0.00,,2013-03-09 10:01:00,
2013-03-09 04:11:00,44.0,37.0,30.16,ENE,78,0.0,0.0,76,0.00,,,0.00,,2013-03-09 10:11:00,
2013-03-09 04:22:00,43.0,36.0,30.15,ENE,77,0.0,0.0,77,0.00,,,0.00,,2013-03-09 10:22:00,
2013-03-09 04:32:00,44.0,37.0,30.15,ENE,78,0.0,0.0,77,0.00,,,0.00,,2013-03-09 10:32:00,
2013-03-09 04:42:00,44.0,37.0,30.15,ENE,78,0.0,0.0,77,0.00,,,0.00,,2013-03-09 10:42:00,
2013-03-09 04:52:00,44.0,37.0,30.16,ENE,77,0.0,0.0,76,0.00,,,0.00,,2013-03-09 10:52:00,
2013-03-09 05:01:00,44.0,37.0,30.16,ENE,78,0.0,0.0,75,0.00,,,0.00,,2013-03-09 11:01:00,
2013-03-09 05:11:00,44.0,37.0,30.16,ENE,78,0.0,0.0,75,0.00,,,0.00,,2013-03-09 11:11:00,
2013-03-09 05:22:00,44.0,37.0,30.18,ENE,78,0.0,0.0,76,0.00,,,0.00,,2013-03-09 11:22:00,
2013-03-09 05:32:00,44.0,37.0,30.18,ENE,77,0.0,0.0,77,0.00,,,0.00,,2013-03-09 11:32:00,
2013-03-09 05:42:00,44.0,37.0,30.18,ENE,77,0.0,0.0,77,0.00,,,0.00,,2013-03-09 11:42:00,
2013-03-09 05:52:00,43.0,37.0,30.17,ENE,78,0.0,0.0,79,0.00,,,0.00,,2013-03-09 11:52:00,
2013-03-09 06:02:00,42.0,37.0,30.18,ENE,77,0.0,0.0,82,0.00,,,0.00,,2013-03-09 12:02:00,
2013-03-09 06:11:00,42.0,37.0,30.18,ENE,77,0.0,0.0,82,0.00,,,0.00,,2013-03-09 12:11:00,
2013-03-09 06:22:00,42.0,37.0,30.18,ENE,76,0.0,0.0,82,0.00,,,0.00,,2013-03-09 12:22:00,
2013-03-09 06:32:00,42.0,36.0,30.18,ENE,68,1.0,3.0,80,0.00,,,0.00,,2013-03-09 12:32:00,
2013-03-09 06:42:00,42.0,36.0,30.18,ENE,68,1.0,3.0,80,0.00,,,0.00,,2013-03-09 12:42:00,
2013-03-09 06:52:00,44.0,37.0,30.19,East,81,0.0,1.0,77,0.00,,,0.00,,2013-03-09 12:52:00,
2013-03-09 07:02:00,45.0,39.0,30.20,East,80,0.0,0.0,78,0.00,,,0.00,,2013-03-09 13:02:00,
2013-03-09 07:11:00,45.0,39.0,30.20,East,80,0.0,0.0,78,0.00,,,0.00,,2013-03-09 13:11:00,
2013-03-09 07:22:00,46.0,39.0,30.20,ENE,72,0.0,2.0,76,0.00,,,0.00,,2013-03-09 13:22:00,
2013-03-09 07:32:00,48.0,40.0,30.20,East,81,1.0,3.0,73,0.00,,,0.00,,2013-03-09 13:32:00,
2013-03-09 07:42:00,48.0,40.0,30.20,East,81,1.0,3.0,73,0.00,,,0.00,,2013-03-09 13:42:00,
2013-03-09 07:52:00,50.0,41.0,30.21,ESE,113,1.0,5.0,70,0.00,,,0.00,,2013-03-09 13:52:00,
2013-03-09 08:01:00,53.0,42.0,30.21,ESE,108,1.0,4.0,65,0.00,,,0.00,,2013-03-09 14:01:00,
2013-03-09 08:11:00,53.0,42.0,30.21,ESE,108,1.0,4.0,65,0.00,,,0.00,,2013-03-09 14:11:00,
2013-03-09 08:22:00,55.0,42.0,30.21,SE,131,3.0,6.0,61,0.00,,,0.00,,2013-03-09 14:22:00,
2013-03-09 08:32:00,56.0,42.0,30.21,ESE,110,1.0,8.0,60,0.00,,,0.00,,2013-03-09 14:32:00,
2013-03-09 08:42:00,56.0,42.0,30.21,ESE,110,1.0,8.0,60,0.00,,,0.00,,2013-03-09 14:42:00,
2013-03-09 08:52:00,57.0,41.0,30.22,SSE,150,2.0,6.0,56,0.00,,,0.00,,2013-03-09 14:52:00,
2013-03-09 09:02:00,58.0,41.0,30.22,SE,131,3.0,7.0,53,0.00,,,0.00,,2013-03-09 15:02:00,
2013-03-09 09:12:00,58.0,41.0,30.22,SE,131,3.0,7.0,53,0.00,,,0.00,,2013-03-09 15:12:00,
2013-03-09 09:22:00,59.0,41.0,30.22,ENE,68,3.0,7.0,52,0.00,,,0.00,,2013-03-09 15:22:00,
2013-03-09 09:32:00,59.0,42.0,30.22,SE,142,3.0,6.0,53,0.00,,,0.00,,2013-03-09 15:32:00,
2013-03-09 09:42:00,59.0,42.0,30.22,SE,142,3.0,6.0,53,0.00,,,0.00,,2013-03-09 15:42:00,
2013-03-09 09:52:00,60.0,42.0,30.22,ESE,108,3.0,7.0,52,0.00,,,0.00,,2013-03-09 15:52:00,
2013-03-09 10:01:00,62.0,42.0,30.22,ENE,74,2.0,6.0,48,0.00,,,0.00,,2013-03-09 16:01:00,
2013-03-09 10:11:00,62.0,42.0,30.22,ENE,74,2.0,6.0,48,0.00,,,0.00,,2013-03-09 16:11:00,
2013-03-09 10:22:00,63.0,42.0,30.23,ESE,117,3.0,8.0,47,0.00,,,0.00,,2013-03-09 16:22:00,
2013-03-09 10:32:00,63.0,40.0,30.22,ENE,71,4.0,12.0,42,0.00,,,0.00,,2013-03-09 16:32:00,
2013-03-09 10:42:00,63.0,40.0,30.22,ENE,71,4.0,12.0,42,0.00,,,0.00,,2013-03-09 16:42:00,
2013-03-09 10:52:00,64.0,41.0,30.21,SSE,167,3.0,9.0,43,0.00,,,0.00,,2013-03-09 16:52:00,
2013-03-09 11:01:00,65.0,41.0,30.21,ESE,113,5.0,11.0,42,0.00,,,0.00,,2013-03-09 17:01:00,
2013-03-09 11:11:00,65.0,41.0,30.21,ESE,113,5.0,11.0,42,0.00,,,0.00,,2013-03-09 17:11:00,
2013-03-09 11:22:00,65.0,40.0,30.21,SE,126,4.0,8.0,40,0.00,,,0.00,,2013-03-09 17:22:00,
2013-03-09 11:32:00,67.0,40.0,30.20,East,99,3.0,6.0,37,0.00,,,0.00,,2013-03-09 17:32:00,
2013-03-09 11:42:00,67.0,40.0,30.20,East,99,3.0,6.0,37,0.00,,,0.00,,2013-03-09 17:42:00,
2013-03-09 11:52:00,68.0,40.0,30.19,East,89,4.0,9.0,36,0.00,,,0.00,,2013-03-09 17:52:00,
2013-03-09 12:02:00,67.0,38.0,30.19,East,79,4.0,8.0,35,0.00,,,0.00,,2013-03-09 18:02:00,
2013-03-09 12:11:00,67.0,38.0,30.19,East,79,4.0,8.0,35,0.00,,,0.00,,2013-03-09 18:11:00,
2013-03-09 12:21:00,68.0,38.0,30.19,SE,139,4.0,10.0,33,0.00,,,0.00,,2013-03-09 18:21:00,
2013-03-09 12:32:00,68.0,38.0,30.18,ESE,105,3.0,7.0,33,0.00,,,0.00,,2013-03-09 18:32:00,
2013-03-09 12:42:00,68.0,38.0,30.18,ESE,105,3.0,7.0,33,0.00,,,0.00,,2013-03-09 18:42:00,
2013-03-09 12:52:00,69.0,38.0,30.17,ENE,77,3.0,6.0,32,0.00,,,0.00,,2013-03-09 18:52:00,
2013-03-09 13:01:00,68.0,39.0,30.17,SE,134,4.0,7.0,35,0.00,,,0.00,,2013-03-09 19:01:00,
2013-03-09 13:12:00,68.0,39.0,30.17,SE,134,4.0,7.0,35,0.00,,,0.00,,2013-03-09 19:12:00,
2013-03-09 13:22:00,69.0,39.0,30.16,WNW,297,1.0,6.0,34,0.00,,,0.00,,2013-03-09 19:22:00,
2013-03-09 13:32:00,70.0,40.0,30.16,SE,131,4.0,7.0,33,0.00,,,0.00,,2013-03-09 19:32:00,
2013-03-09 13:42:00,70.0,40.0,30.16,SE,131,4.0,7.0,33,0.00,,,0.00,,2013-03-09 19:42:00,
2013-03-09 13:52:00,70.0,38.0,30.15,ENE,58,2.0,7.0,31,0.00,,,0.00,,2013-03-09 19:52:00,
2013-03-09 14:01:00,69.0,36.0,30.14,ENE,78,3.0,7.0,30,0.00,,,0.00,,2013-03-09 20:01:00,
2013-03-09 14:11:00,69.0,36.0,30.14,ENE,78,3.0,7.0,30,0.00,,,0.00,,2013-03-09 20:11:00,
2013-03-09 14:22:00,70.0,39.0,30.14,South,172,1.0,7.0,32,0.00,,,0.00,,2013-03-09 20:22:00,
2013-03-09 14:32:00,71.0,40.0,30.14,SE,127,3.0,6.0,32,0.00,,,0.00,,2013-03-09 20:32:00,
2013-03-09 14:42:00,71.0,40.0,30.14,SE,127,3.0,6.0,32,0.00,,,0.00,,2013-03-09 20:42:00,
2013-03-09 14:52:00,70.0,39.0,30.14,SE,131,1.0,5.0,32,0.00,,,0.00,,2013-03-09 20:52:00,
2013-03-09 15:02:00,68.0,39.0,30.15,ENE,77,2.0,6.0,34,0.00,,,0.00,,2013-03-09 21:02:00,
2013-03-09 15:12:00,68.0,39.0,30.15,ENE,77,2.0,6.0,34,0.00,,,0.00,,2013-03-09 21:12:00,
2013-03-09 15:22:00,68.0,39.0,30.15,SE,132,3.0,5.0,35,0.00,,,0.00,,2013-03-09 21:22:00,
2013-03-09 15:32:00,69.0,40.0,30.14,ENE,58,1.0,5.0,35,0.00,,,0.00,,2013-03-09 21:32:00,
2013-03-09 15:42:00,69.0,40.0,30.14,ENE,58,1.0,5.0,35,0.00,,,0.00,,2013-03-09 21:42:00,
2013-03-09 15:52:00,68.0,40.0,30.14,East,101,2.0,6.0,36,0.00,,,0.00,,2013-03-09 21:52:00,
2013-03-09 16:01:00,68.0,40.0,30.14,ESE,110,1.0,7.0,36,0.00,,,0.00,,2013-03-09 22:01:00,
2013-03-09 16:11:00,68.0,40.0,30.14,ESE,110,1.0,7.0,36,0.00,,,0.00,,2013-03-09 22:11:00,
2013-03-09 16:21:00,67.0,40.0,30.14,ESE,114,1.0,5.0,37,0.00,,,0.00,,2013-03-09 22:21:00,
2013-03-09 16:32:00,67.0,40.0,30.14,SE,127,1.0,4.0,37,0.00,,,0.00,,2013-03-09 22:32:00,
2013-03-09 16:42:00,67.0,40.0,30.14,SE,127,1.0,4.0,37,0.00,,,0.00,,2013-03-09 22:42:00,
2013-03-09 16:51:00,67.0,41.0,30.14,ESE,102,2.0,6.0,38,0.00,,,0.00,,2013-03-09 22:51:00,
2013-03-09 17:01:00,66.0,39.0,30.14,ESE,108,1.0,5.0,37,0.00,,,0.00,,2013-03-09 23:01:00,
2013-03-09 17:11:00,66.0,39.0,30.14,ESE,108,1.0,5.0,37,0.00,,,0.00,,2013-03-09 23:11:00,
2013-03-09 17:21:00,66.0,40.0,30.13,East,96,0.0,4.0,39,0.00,,,0.00,,2013-03-09 23:21:00,
2013-03-09 17:32:00,65.0,39.0,30.13,East,91,0.0,6.0,38,0.00,,,0.00,,2013-03-09 23:32:00,
2013-03-09 17:42:00,65.0,39.0,30.13,East,91,0.0,6.0,38,0.00,,,0.00,,2013-03-09 23:42:00,
2013-03-09 17:52:00,65.0,37.0,30.13,East,80,2.0,5.0,36,0.00,,,0.00,,2013-03-09 23:52:00,
2013-03-09 18:02:00,64.0,37.0,30.13,East,82,0.0,4.0,36,0.00,,,0.00,,2013-03-10 00:02:00,
2013-03-09 18:11:00,64.0,37.0,30.13,East,82,0.0,4.0,36,0.00,,,0.00,,2013-03-10 00:11:00,
2013-03-09 18:22:00,62.0,38.0,30.13,ENE,74,0.0,1.0,41,0.00,,,0.00,,2013-03-10 00:22:00,
2013-03-09 18:32:00,62.0,38.0,30.13,ENE,74,0.0,1.0,41,0.00,,,0.00,,2013-03-10 00:32:00,
2013-03-09 18:42:00,62.0,38.0,30.13,ENE,74,0.0,1.0,41,0.00,,,0.00,,2013-03-10 00:42:00,
2013-03-09 18:52:00,58.0,37.0,30.12,ENE,74,0.0,0.0,46,0.00,,,0.00,,2013-03-10 00:52:00,
2013-03-09 19:01:00,57.0,37.0,30.12,ENE,74,0.0,0.0,47,0.00,,,0.00,,2013-03-10 01:01:00,
2013-03-09 19:11:00,57.0,37.0,30.12,ENE,74,0.0,0.0,47,0.00,,,0.00,,2013-03-10 01:11:00,
2013-03-09 19:22:00,57.0,39.0,30.12,East,90,0.0,1.0,50,0.00,,,0.00,,2013-03-10 01:22:00,
2013-03-09 19:32:00,56.0,38.0,30.13,East,91,0.0,0.0,50,0.00,,,0.00,,2013-03-10 01:32:00,
2013-03-09 19:42:00,56.0,38.0,30.13,East,91,0.0,0.0,50,0.00,,,0.00,,2013-03-10 01:42:00,
2013-03-09 19:52:00,56.0,38.0,30.13,East,91,0.0,0.0,50,0.00,,,0.00,,2013-03-10 01:52:00,
2013-03-09 20:01:00,55.0,38.0,30.12,East,91,0.0,0.0,52,0.00,,,0.00,,2013-03-10 02:01:00,
2013-03-09 20:11:00,55.0,38.0,30.12,East,91,0.0,0.0,52,0.00,,,0.00,,2013-03-10 02:11:00,
2013-03-09 20:22:00,55.0,39.0,30.12,East,90,0.0,0.0,54,0.00,,,0.00,,2013-03-10 02:22:00,
2013-03-09 20:32:00,54.0,39.0,30.12,East,91,0.0,1.0,57,0.00,,,0.00,,2013-03-10 02:32:00,
2013-03-09 20:42:00,54.0,39.0,30.12,East,91,0.0,1.0,57,0.00,,,0.00,,2013-03-10 02:42:00,
2013-03-09 20:52:00,54.0,38.0,30.11,ENE,68,0.0,3.0,55,0.00,,,0.00,,2013-03-10 02:52:00,
2013-03-09 21:02:00,55.0,37.0,30.12,NE,46,0.0,3.0,51,0.00,,,0.00,,2013-03-10 03:02:00,
2013-03-09 21:12:00,55.0,37.0,30.12,NE,46,0.0,3.0,51,0.00,,,0.00,,2013-03-10 03:12:00,
2013-03-09 21:22:00,56.0,37.0,30.13,East,92,0.0,1.0,49,0.00,,,0.00,,2013-03-10 03:22:00,
2013-03-09 21:32:00,56.0,37.0,30.12,SE,126,0.0,2.0,49,0.00,,,0.00,,2013-03-10 03:32:00,
2013-03-09 21:42:00,56.0,37.0,30.12,SE,126,0.0,2.0,49,0.00,,,0.00,,2013-03-10 03:42:00,
2013-03-09 21:52:00,56.0,38.0,30.11,East,82,0.0,1.0,51,0.00,,,0.00,,2013-03-10 03:52:00,
2013-03-09 22:01:00,56.0,38.0,30.09,East,84,3.0,4.0,50,0.00,,,0.00,,2013-03-10 04:01:00,
2013-03-09 22:11:00,56.0,38.0,30.09,East,84,3.0,4.0,50,0.00,,,0.00,,2013-03-10 04:11:00,
2013-03-09 22:22:00,56.0,38.0,30.10,SSW,200,0.0,3.0,50,0.00,,,0.00,,2013-03-10 04:22:00,
2013-03-09 22:32:00,57.0,38.0,30.10,ESE,115,0.0,2.0,48,0.00,,,0.00,,2013-03-10 04:32:00,
2013-03-09 22:42:00,57.0,38.0,30.10,ESE,115,0.0,2.0,48,0.00,,,0.00,,2013-03-10 04:42:00,
2013-03-09 22:52:00,57.0,38.0,30.09,SE,127,0.0,4.0,48,0.00,,,0.00,,2013-03-10 04:52:00,
2013-03-09 23:02:00,56.0,39.0,30.11,WSW,257,0.0,2.0,53,0.00,,,0.00,,2013-03-10 05:02:00,
2013-03-09 23:11:00,56.0,39.0,30.11,WSW,257,0.0,2.0,53,0.00,,,0.00,,2013-03-10 05:11:00,
2013-03-09 23:22:00,55.0,40.0,30.10,WSW,240,0.0,1.0,56,0.00,,,0.00,,2013-03-10 05:22:00,
2013-03-09 23:32:00,54.0,39.0,30.10,WSW,240,0.0,0.0,57,0.00,,,0.00,,2013-03-10 05:32:00,
2013-03-09 23:42:00,53.0,39.0,30.09,ENE,72,0.0,0.0,58,0.00,,,0.00,,2013-03-10 05:42:00,
2013-03-09 23:52:00,53.0,39.0,30.09,ENE,72,0.0,0.0,58,0.00,,,0.00,,2013-03-10 05:52:00,